STARLINK-32399, 61627

Orbit data source: Space-Track

STARLINK-32399, 61627 is a payload satellite owned by SpaceX/Seattle (US) in LEO that was launched on Wed, 23 Oct 2024 UTC via an FALCON 9 launch vehicle from the Air Force Eastern Test Range (AFETR). Payload-class satellites include a variety of spacecraft equipped with specific instruments for various scientific and technological missions. These include communications satellites like Starlink; space stations such as the ISS; scientific satellites like the Hubble; Earth observation satellites from companies like Planet Labs, Umbra, and HawkEye 360; GPS; miniature CubeSats for education and research; and military/defense satellites.

Loading next visibility...
Identifier
61627, 2024-191G
Orbit
LEO
Country
Flag of USUS
Related business
Manufacturer
SpaceX/Seattle
Mission
Operational Commercial Communications
Bus & Motor
STARLINK V2M, Unknown motor
Mass
730 kg wet, ~700 kg dry
Launch date (UTC)
2024-10-23 (1 year ago)
Launch vehicle
FALCON 9
Launch site
Air Force Eastern Test Range (AFETR)
Object type
Payload
Rocket body
Debris
Shape & HBR
Box + 2 Pan, 17.7 m
Radar Cross Section
33.884 m², Large (>1 m²)

Expand to show TLE details & history
Last TLE update: 1 day ago

TLE from 1 day ago
0 STARLINK-32399
1 61627U 24191G   25309.53009936 -.00000049  00000-0  77452-5 0  9997
2 61627  42.9998 128.2585 0000900 275.8704  84.2045 15.27571606 58633
Epoch: 2025-11-05T12:43Z
TLE epoch observation values (Epoch: 2025-11-05T12:43:20.584Z)
Latitude
-0.00003°
Longitude
-107.57875°
Altitude
482.787 km
Speed
7.626 km/s
True Right ascension
08h 33m 02s
True Declination
0° 00' 00"
Sunlit
Object was in daylight at epoch
Visualization orbit readout
Latitude
Unknown
Longitude
Unknown
Altitude
Unknown
Speed
Unknown
Apparent Right ascension
Unknown
Apparent Declination
Unknown
Sunlit
N/A
Visualization observer readout
Local Sidereal Time
12:32:21
Azimuth
Unknown
Elevation
Unknown
Doppler factor
Unknown
Orbital elements
Apogee altitude
485.637 km
Perigee altitude
484.402 km
Semi-major axis
6,863.156 km
Eccentricity
0.00009
Inclination
42.9998°
RAAN
128.2585°
Arg. of periapsis
275.8704°
True anomaly
84.21476°
Mean anomaly
84.2045°
Eccentric anomaly
84.20963°
Mean motion
3.81731 °/min
Orbital period
94.31 mins
BSTAR
0.0000077452
Loading maneuver chart data...
Computing Atmospheric mass density...
Loading historical data...
Loading historical data...
Loading historical data...
Loading historical data...
Loading historical data...
Loading historical data...
Loading historical data...

Documentation

Showing up to 5 results
|